星链-30217 (STARLINK-30217 )

导读 | 星芒AI

STARLINK-30217 是 SpaceX Starlink 项目中的一颗低轨通信卫星,属于第三代 Starlink 卫星(v1.5 或 v2 型号)。它于 2023 年发射,旨在为全球提供高速互联网服务。该卫星采用先进推进系统和激光通信技术,提升网络效率与稳定性。作为 Starlink 卫星群的一部分,STARLINK-30217 有助于扩大覆盖范围,改善偏远地区的网络接入。其运行轨道高度约 550 公里,设计寿命数年,支持全球用户实现低延迟、高带宽的互联网连接。

基本信息
目录编号:
57450
目录名称:
STARLINK-30217
国际标识:
2023-105W
轨道中心:
EARTH
卫星名称:
星链-30217
卫星全名:
星链-30217 (STARLINK-30217 )
卫星状态:
在轨 (已飞行878 天)
发射日期:
2023-07-24 UTC
国别 :
美国 (US)
星等 :
--
轨道信息
数据来源 国际轨道数据 AOE轨道数据
星历时间 2025-12-18T13:48:04+0800
15小时前
查看轨道信息
2025-12-18T20:00:00+0800
9小时前
查看轨道信息
半长轴 6937.208km 6937.191km
偏心率 0.0000615 0.0001442
轨道倾角 43.005° 42.999°
近地点辐角 262.695° 110.103°
升交点赤经 331.103° 329.712°
平近点角 97.382° 208.661°
近地点 558.646km 558.055km
远地点 559.5km 560.057km
周期 95.838分钟 95.837分钟
每日圈数 15.025388 15.025445
详细信息
固有亮度:
5
最大亮度:
0.3
卫星平台:
Starlink v2.0 mini
覆盖范围:
全球
运营商:
太空探索技术公司
运营商所在国:
美国
制造商(研发单位):
太空探索技术公司
制造商所在国:
美国
使用方式:
暂无
卫星简介
星链(Starlink)计划是由太空探索技术公司(SpaceX)提出的一个巨型低轨卫星互联网星座项目,计划在2019年至2024年间在太空搭建由约1.2万颗卫星组成的“星链”网络,其中1584颗将部署在地球上空550千米处的近地轨道,并从2020年开始工作。该卫星仍在工作。
2D轨道图
3D轨道图
轨道高度分析图
轨道倾角分析图
轨道综合分析图
查看轨道综合分析图